sat.trackr.live / text

‹ back to catalog

PULSAR-0

NORAD 64541 · 2025-135P

PAYLOAD ACTIVE UNKNOWN

§ Identity

Operator
Country
US
Launch date
2025-06-23
Launch site
AFWTR
Launch vehicle
Mass (kg)
RCS (m²)

External: N2YO · Heavens-Above · Gunter

§ Orbital elements

Epoch: 2026-09-21T21:27:28.249344Z

Period
94.69 min
Inclination
97.4779°
Eccentricity
0.0002726
Mean motion
15.20734221 rev/d
Perigee alt
501.7 km
Apogee alt
505.5 km
Semi-major
6,881.8 km
B*
9.2625e-5
RAAN
18.7022°
Arg perigee
176.7752°
Mean anomaly
183.3502°
Rev number
6,952

§ Raw data

PULSAR-01 64541U 25135P   26264.89407696  .00001968  00000+0  92625-4 0  99962 64541  97.4779  18.7022 0002726 176.7752 183.3502 15.20734221 69528

JSON: /api/v1/satellites/64541 · /tle

For live sub-satellite position, see the globe view (requires WebGL).

§ Visibility from observer

Set your observer location to see the next 7 days of passes ≥ 10°. The values pass through the URL so the page stays shareable.

No JS? Fill the form by hand. The geolocation button needs JavaScript.